Hourly Data Report for November 03, 2017

All times are specified in Local Standard Time (LST). Add 1 hour to adjust for Daylight Saving Time where and when it is observed.

GREENWOOD A
NOVA SCOTIA

44°59'00.000" N
64°55'00.000" W
28.00 m
8202000
71397
YZX

Download Data

Hourly Data (November 2017)
Hourly Data Report for November 3, 2017
Temp Definition
°C
Dew Point Temp Definition
°C
Rel Hum Definition
%
Wind Dir Definition
10's deg

Wind Spd Definition
km/h
Visibility Definition
km
Stn Press Definition
kPa
Hmdx Definition


Wind Chill Definition


Weather Definition


TIME
00:00 15.4 13.8 90 17 9 24.1 102.13     Cloudy
01:00 15.7 14.4 92 18 15 9.7 102.03     Fog
02:00 15.9 14.5 91 17 15 9.7 101.93     Fog
03:00 16.2 14.6 90 26 11 9.7 101.91     Fog
04:00 16.6 14.7 89 18 9 24.1 101.85     Cloudy
05:00 16.8 14.9 89 22 9 9.7 101.78     Fog
06:00 17.1 15.2 89 20 11 24.1 101.70     Cloudy
07:00 17.4 15.4 88 21 13 24.1 101.67     Cloudy
08:00 17.7 15.8 89 18 20 24.1 101.61     Cloudy
09:00 18.1 15.4 84 20 17 24.1 101.54     Cloudy
10:00 19.0 15.9 82 18 24 24.1 101.46     Mostly Cloudy
11:00 19.5 15.6 78 21 24 24.1 101.36     Cloudy
12:00 20.5 15.7 74 20 15 24.1 101.21 25   Mostly Cloudy
13:00 23.2 14.3 57 21 20 24.1 101.11 27   Mostly Cloudy
14:00 23.3 12.9 52 20 24 24.1 100.93 26   Mostly Cloudy
15:00 23.3 12.9 52 20 24 24.1 100.86 26   Mostly Cloudy
16:00 21.0 14.6 67 20 19 24.1 100.77 25   Cloudy
17:00 20.3 15.7 75 20 19 24.1 100.71 25   Cloudy
18:00 19.7 15.0 74 22 33 24.1 100.69     Mostly Cloudy
19:00 18.4 13.0 71 21 26 24.1 100.66     Mostly Cloudy
20:00 18.1 11.8 67 22 22 24.1 100.63     Cloudy
21:00 15.3 13.7 90 25 22 8.0 100.67     Rain Showers,Fog
22:00 12.7 10.6 87 25 37 6.4 100.89     Rain Showers,Fog
23:00 11.7 9.2 85 28 26 24.1 100.94     Cloudy

Notes on Data Quality.

Legend

  • E = Estimated
  • M = Missing
  • NA = Not Available
  • ‡ = Partner data that is not subject to review by the National Climate Archives
Date modified: